Eagle River, WI

10:07 AM CDT on April 29, 2017 (GMT -0500)
Eagle River Union

Weather History for KEGV - November, 2014

Change the Weather History Date:

Friday, November 21, 2014

  Actual Average Record
Temperature  
Mean Temperature 10 °F -  
Max Temperature 25 °F 34 °F 51 °F (1999)
Min Temperature -6 °F 21 °F -6 °F (2014)
Degree Days  
Heating Degree Days 56    
Moisture  
Dew Point 1 °F    
Average Humidity 62    
Maximum Humidity 83    
Minimum Humidity 36    
Precipitation  
Precipitation 0.00 in - - ()
Sea Level Pressure  
Sea Level Pressure 30.07 in    
Wind  
Wind Speed 4 mph (SSW)    
Max Wind Speed 15 mph    
Max Gust Speed 23 mph    
Visibility 10 miles    
Events      
Averages and records for this station are not official NWS values.
T = Trace of Precipitation, MM = Missing Value Source: NWS Daily Summary

Daily Weather History Graph

Daily Weather History Graph

Search for Another Location

Airport or City:

Trip Planner

Search our weather history database for the weather conditions in past years. The results will help you decide how hot, cold, wet, or windy it might be!

Date:

Astronomy

Nov. 21, 2014 Rise Set
Actual Time 7:05 AM CST 4:19 PM CST
Civil Twilight 6:32 AM CST 4:52 PM CST
Nautical Twilight 5:55 AM CST 5:29 PM CST
Astronomical Twilight 5:20 AM CST 6:05 PM CST
Moon 5:56 AM CST (11/21) 4:07 PM CST (11/21)
Length of Visible Light 10h 20m
Length of Day
9h 14m
Waning Crescent, 1% of the Moon is Illuminated
Nov 21
Waning Crescent
Nov 22
New
Nov 29
First Quarter
Dec 6
Full
Dec 14
Last Quarter

Hourly Weather History & Observations

Time (CST) Temp. Windchill Dew Point Humidity Pressure Visibility Wind Dir Wind Speed Gust Speed Precip Events Conditions
12:15 AM -2.2 °F - -6.2 °F 83% 30.14 in 10.0 mi Calm Calm - N/A   Clear
12:32 AM -0.4 °F - -5.8 °F 78% 30.14 in 10.0 mi Calm Calm - N/A   Clear
12:35 AM 0.1 °F - -4.4 °F 81% 30.14 in 10.0 mi Calm Calm - N/A   Clear
12:55 AM -5.4 °F - -11.4 °F 76% 30.15 in 10.0 mi Calm Calm - N/A   Clear
1:15 AM -2.6 °F - -6.5 °F 83% 30.15 in 10.0 mi Calm Calm - N/A   Clear
1:35 AM -6.5 °F -19.3 °F -11.7 °F 78% 30.16 in 10.0 mi WSW 5.8 mph - N/A   Clear
1:55 AM -3.6 °F -14.1 °F -7.8 °F 82% 30.17 in 10.0 mi WSW 4.6 mph - N/A   Clear
2:15 AM -1.8 °F - -6.7 °F 80% 30.18 in 10.0 mi Calm Calm - N/A   Clear
2:35 AM -0.9 °F - -5.6 °F 81% 30.18 in 10.0 mi Calm Calm - N/A   Clear
2:55 AM -3.1 °F - -8.0 °F 80% 30.19 in 10.0 mi Calm Calm - N/A   Clear
3:15 AM -2.9 °F - -8.0 °F 79% 30.19 in 10.0 mi Calm Calm - N/A   Clear
3:35 AM -2.9 °F - -7.4 °F 81% 30.20 in 10.0 mi Calm Calm - N/A   Clear
3:55 AM -2.0 °F - -6.9 °F 80% 30.19 in 10.0 mi Calm Calm - N/A   Clear
4:15 AM -2.6 °F - -7.6 °F 79% 30.19 in 10.0 mi Calm Calm - N/A   Clear
4:32 AM -2.2 °F - -7.6 °F 78% 30.19 in 10.0 mi Calm Calm - N/A   Clear
4:35 AM -2.0 °F - -7.1 °F 79% 30.19 in 10.0 mi Calm Calm - N/A   Clear
4:55 AM -0.6 °F - -5.6 °F 79% 30.20 in 10.0 mi Calm Calm - N/A   Clear
5:15 AM 0.7 °F - -4.5 °F 79% 30.19 in 10.0 mi Calm Calm - N/A   Scattered Clouds
5:35 AM 2.3 °F -7.2 °F -3.5 °F 77% 30.20 in 10.0 mi SW 4.6 mph - N/A   Mostly Cloudy
5:55 AM 2.3 °F - -3.3 °F 77% 30.20 in 10.0 mi Calm Calm - N/A   Mostly Cloudy
6:15 AM 1.4 °F - -4.2 °F 77% 30.20 in 10.0 mi Calm Calm - N/A   Scattered Clouds
6:35 AM 0.3 °F - -5.1 °F 78% 30.20 in 10.0 mi Calm Calm - N/A   Clear
6:55 AM -0.0 °F - -5.1 °F 79% 30.20 in 10.0 mi Calm Calm - N/A   Clear
7:15 AM 0.1 °F - -5.1 °F 79% 30.20 in 10.0 mi Calm Calm - N/A   Clear
7:35 AM 0.3 °F - -5.1 °F 78% 30.20 in 10.0 mi Calm Calm - N/A   Clear
7:55 AM 2.5 °F - -3.6 °F 76% 30.20 in 10.0 mi Calm Calm - N/A   Mostly Cloudy
8:15 AM 4.5 °F -2.7 °F -2.2 °F 74% 30.20 in 10.0 mi SSW 3.5 mph - N/A   Mostly Cloudy
8:35 AM 6.8 °F -2.0 °F -0.8 °F 71% 30.19 in 10.0 mi SSW 4.6 mph - N/A   Scattered Clouds
8:55 AM 8.2 °F -3.0 °F -0.4 °F 68% 30.19 in 10.0 mi SW 6.9 mph - N/A   Clear
9:15 AM 9.1 °F -3.0 °F -0.6 °F 65% 30.19 in 10.0 mi SSW 8.1 mph - N/A   Mostly Cloudy
9:30 AM 9.9 °F -2.2 °F -0.4 °F 63% 30.19 in 10.0 mi SW 8.1 mph - N/A   Mostly Cloudy
9:55 AM 10.9 °F -2.6 °F 0.1 °F 62% 30.18 in 10.0 mi SW 10.4 mph - N/A   Scattered Clouds
10:55 AM 14.7 °F 2.9 °F 0.3 °F 53% 30.16 in 10.0 mi SSW 9.2 mph 16.1 mph N/A   Scattered Clouds
11:10 AM 16.3 °F 4.9 °F 0.1 °F 49% 30.15 in 10.0 mi SSW 9.2 mph - N/A   Mostly Cloudy
11:35 AM 16.5 °F 3.6 °F -0.0 °F 48% 30.14 in 10.0 mi SW 11.5 mph 16.1 mph N/A   Mostly Cloudy
11:50 AM 17.2 °F 5.2 °F 0.3 °F 48% 30.13 in 10.0 mi SW 10.4 mph 17.3 mph N/A   Mostly Cloudy
12:15 PM 18.5 °F 7.5 °F 0.9 °F 46% 30.11 in 10.0 mi SSW 9.2 mph 17.3 mph N/A   Clear
12:55 PM 19.9 °F 8.6 °F 0.9 °F 44% 30.09 in 10.0 mi SSW 10.4 mph - N/A   Mostly Cloudy
1:15 PM 20.3 °F 7.7 °F -1.1 °F 39% 30.09 in 10.0 mi SSW 12.7 mph 19.6 mph N/A   Scattered Clouds
1:35 PM 21.2 °F 9.5 °F -0.9 °F 38% 30.08 in 10.0 mi SSW 11.5 mph 19.6 mph N/A   Clear
1:55 PM 22.5 °F 9.9 °F -0.9 °F 36% 30.06 in 10.0 mi SSW 13.8 mph 23.0 mph N/A   Clear
2:15 PM 22.6 °F 12.6 °F -0.4 °F 37% 30.05 in 10.0 mi SSW 9.2 mph 19.6 mph N/A   Clear
2:55 PM 22.1 °F 12.0 °F 0.1 °F 38% 30.04 in 10.0 mi SSW 9.2 mph 19.6 mph N/A   Clear
3:15 PM 22.5 °F 13.2 °F 0.7 °F 39% 30.03 in 10.0 mi SSW 8.1 mph 18.4 mph N/A   Clear
3:35 PM 22.1 °F 11.3 °F 1.2 °F 40% 30.03 in 10.0 mi SW 10.4 mph 19.6 mph N/A   Clear
3:55 PM 21.4 °F 10.4 °F 1.4 °F 42% 30.02 in 10.0 mi SW 10.4 mph 18.4 mph N/A   Clear
4:15 PM 21.2 °F 10.9 °F 1.9 °F 43% 30.02 in 10.0 mi SSW 9.2 mph - N/A   Clear
4:35 PM 20.7 °F 11.9 °F 2.8 °F 46% 30.01 in 10.0 mi South 6.9 mph - N/A   Clear
4:55 PM 20.1 °F 12.3 °F 3.9 °F 50% 30.01 in 10.0 mi South 5.8 mph - N/A   Clear
5:15 PM 20.1 °F 11.3 °F 4.1 °F 50% 30.00 in 10.0 mi SSW 6.9 mph - N/A   Clear
5:35 PM 20.3 °F 12.5 °F 3.9 °F 49% 29.99 in 10.0 mi South 5.8 mph - N/A   Scattered Clouds
5:50 PM 20.3 °F 12.5 °F 3.9 °F 49% 29.99 in 10.0 mi SSW 5.8 mph - N/A   Scattered Clouds
6:15 PM 21.4 °F 12.8 °F 3.7 °F 47% 29.97 in 10.0 mi SSW 6.9 mph - N/A   Clear
6:35 PM 21.7 °F 11.5 °F 4.5 °F 47% 29.96 in 10.0 mi SSW 9.2 mph - N/A   Clear
6:50 PM 22.1 °F 11.3 °F 4.6 °F 47% 29.96 in 10.0 mi SSW 10.4 mph 16.1 mph N/A   Clear
7:15 PM 22.6 °F 13.4 °F 5.7 °F 48% 29.95 in 10.0 mi SSW 8.1 mph - N/A   Clear
7:30 PM 22.6 °F 11.9 °F 5.9 °F 49% 29.95 in 10.0 mi SSW 10.4 mph - N/A   Clear
7:55 PM 22.6 °F 14.3 °F 6.8 °F 51% 29.94 in 10.0 mi SSW 6.9 mph - N/A   Clear
8:12 PM 21.2 °F 10.9 °F 6.8 °F 54% 29.92 in 10.0 mi SSW 9.2 mph - N/A   Clear
8:15 PM 22.6 °F 13.4 °F 7.0 °F 51% 29.92 in 10.0 mi SSW 8.1 mph - N/A   Clear
8:35 PM 22.6 °F 13.4 °F 7.7 °F 53% 29.91 in 10.0 mi SSW 8.1 mph - N/A   Clear
8:55 PM 23.0 °F 13.9 °F 8.6 °F 54% 29.90 in 10.0 mi SSW 8.1 mph - N/A   Clear
9:15 PM 23.5 °F 13.7 °F 9.7 °F 56% 29.89 in 10.0 mi SSW 9.2 mph - N/A   Clear
9:35 PM 24.1 °F 13.7 °F 11.1 °F 58% 29.88 in 10.0 mi SSW 10.4 mph 17.3 mph N/A   Clear
9:55 PM 24.6 °F 14.4 °F 12.2 °F 59% 29.87 in 10.0 mi SW 10.4 mph 18.4 mph N/A   Clear
10:15 PM 24.8 °F 14.0 °F 12.7 °F 60% 29.86 in 10.0 mi SSW 11.5 mph 21.9 mph N/A   Clear
10:35 PM 24.8 °F 14.6 °F 13.1 °F 61% 29.85 in 10.0 mi SSW 10.4 mph 16.1 mph N/A   Clear
10:55 PM 24.8 °F 14.0 °F 14.4 °F 65% 29.85 in 10.0 mi SW 11.5 mph 20.7 mph N/A   Clear
11:15 PM 25.2 °F 12.9 °F 15.4 °F 67% 29.84 in 10.0 mi SW 15.0 mph 23.0 mph N/A   Clear
11:30 PM 25.3 °F 15.3 °F 15.8 °F 67% 29.84 in 10.0 mi SW 10.4 mph 18.4 mph N/A   Clear
11:55 PM 25.5 °F 16.2 °F 16.5 °F 69% 29.83 in 10.0 mi SW 9.2 mph 18.4 mph N/A   Clear